Flag for Japan Weather past 2 weeks in Suzuka, Japan

Now
69 °F

Mild.


Feels Like: 69 °F
Forecast: 61 / 80 °F
Wind: 3 mph from West

Location: Tsu

Current Time: Sep 17, 2014 at 7:25:51 AM

Latest Report: Sep 17, 2014 at 6:00 AM


Visibility: N/A

Pressure: 29.96 "Hg

Humidity: 63%

Dew point: 56 °F

Location of SuzukaLocation

Historic Weather in Suzuka — Graph

°F

Suzuka temperature yesterday

Maximum temperature yesterday: 85 °F (at 3:00 PM)
Minimum temperature yesterday: 71 °F (at 1:00 AM)
Average temperature yesterday: 76 °F

Past Weeks' High & Low Weather Summary

 TemperatureHumidityPressure
High88 °F (Sep 7, 3:00 PM)97% (Sep 5, 5:00 AM)29.98 "Hg (Sep 5, 5:00 AM)
Low66 °F (Sep 15, 4:00 AM)31% (Sep 12, 1:00 PM)29.64 "Hg (Sep 9, 1:00 AM)
Average76 °F72%29.85 "Hg
* Reported Sep 2 5:00 AM — Sep 17 5:00 AM, Suzuka, Weather by CustomWeather, © 2014

Note: Actual official high and low records may vary slightly from our data, if they occured in-between our weather recording intervals... More about our weather records

Advertising

Suzuka weather history for previous 24 hours

 ConditionsComfort  
Time TempWeatherWind HumidityBarometerVisibility
5:00 AM
Sep 17
68 °FMild.3 mph67%29.94 "HgN/A
4:00 AM69 °FMild.5 mph61%29.93 "HgN/A
3:00 AM71 °FMild.5 mph61%29.92 "HgN/A
2:00 AM71 °FMild.3 mph57%29.93 "HgN/A
1:00 AM71 °FMild.3 mph56%29.92 "HgN/A
12:00 AM72 °FMild.5 mph54%29.92 "HgN/A
11:00 PM
Sep 16
74 °FMild.7 mph51%29.91 "HgN/A
10:00 PM74 °FMild.5 mph59%29.91 "HgN/A
9:00 PM75 °FPassing clouds.6 mph58%29.91 "Hg12 mi
8:00 PM76 °FMild.7 mph56%29.90 "HgN/A
7:00 PM77 °FWarm.8 mph49%29.89 "HgN/A
6:00 PM79 °FWarm.10 mph46%29.87 "HgN/A
5:00 PM82 °FPleasantly warm.10 mph37%29.85 "HgN/A
4:00 PM84 °FWarm.12 mph43%29.85 "HgN/A
3:00 PM85 °FScattered clouds.10 mph41%29.84 "Hg19 mi
2:00 PM82 °FWarm.8 mph61%29.84 "HgN/A
1:00 PM82 °FWarm.9 mph60%29.85 "HgN/A
12:00 PM80 °FWarm.9 mph62%29.88 "HgN/A
11:00 AM79 °FWarm.7 mph63%29.89 "HgN/A
10:00 AM78 °FWarm.6 mph63%29.91 "HgN/A
9:00 AM77 °FPassing clouds.5 mph63%29.92 "Hg12 mi
8:00 AM75 °FMild.5 mph68%29.91 "HgN/A
7:00 AM73 °FMild.3 mph76%29.90 "HgN/A
Weather by CustomWeather, © 2014

See weather overviewHow to use our weather pages